Regional Weather Roundup
Issued by NWS

Home | Current Version | Previous Version | Text Only | Print | Product List | Glossary Off
Versions: 1 2 3 4 5 6 7 8 9 10 11 12 13 14 15 16 17 18 19 20 21 22 23 24 25 26 27 28 29 30 31 32 33 34 35 36 37 38 39 40 41 42 43 44 45 46 47 48 49 50

064
ASUS43 KFSD 222310
RWRSD

WEATHER ROUNDUP FOR SOUTH DAKOTA
NATIONAL WEATHER SERVICE SIOUX FALLS SD
500 PM CST MON JAN 22 2018

NOTE: "FAIR" INDICATES FEW OR NO CLOUDS BELOW 12,000 FEET WITH NO
SIGNIFICANT WEATHER AND/OR OBSTRUCTIONS TO VISIBILITY.


SDZ001>005-009-010-012>017-230000-
NORTHWEST AND NORTH CENTRAL SOUTH DAKOTA

CITY           SKY/WX    TMP DP  RH WIND       PRES   REMARKS
BUFFALO          N/A     32  20  61 W9        29.92R WCI  24
FAITH            N/A     35  24  64 NW8       29.98R WCI  29
MOBRIDGE       CLOUDY    25  22  88 N8        29.98S FOG     WCI  16
$$

SDZ012>016-024>037-041>051-057-063-072>074-230000-
SOUTHWEST AND SOUTH CENTRAL SOUTH DAKOTA

CITY           SKY/WX    TMP DP  RH WIND       PRES   REMARKS
RAPID CTY ARPT CLEAR     37  19  48 N21       29.97R
PIERRE         CLOUDY    24  23  96 N9        30.00R WCI  14
CUSTER         CLEAR     33   7  33 W7        29.93R WCI  27
ELLSWORTH AFB  CLEAR     38  17  43 N18       29.97R
PHILIP         CLEAR     36  28  73 NW10      29.98R
PINE RIDGE     CLEAR     25  16  68 W8        30.01R WCI  16
SPEARFISH        N/A     34  16  47 W14       30.00R WCI  24
WINNER         MIX PCPN  26  22  84 N16       29.97R FOG     WCI  14
$$

SDZ004>011-016>023-039-040-230000-
NORTHEAST SOUTH DAKOTA

CITY           SKY/WX    TMP DP  RH WIND       PRES   REMARKS
ABERDEEN       CLOUDY    23  21  92 N22       30.00R WCI   8
WATERTOWN      CLOUDY    24  23  96 N25G35    29.87R WCI   8
BROOKINGS      CLOUDY    26  23  88 MISG      29.84R
SISSETON         N/A     27  23  85 N18       29.95R WCI  14
$$

SDZ017-020-022-023-036>040-048>070-230000-
SOUTHEAST SOUTH DAKOTA

CITY           SKY/WX    TMP DP  RH WIND       PRES   REMARKS
SIOUX FALLS    CLOUDY    28  25  88 N32G40    29.80R WCI  12
HURON          CLOUDY    25  22  88 N24G32    29.94R WCI   9
CHAMBERLAIN    CLOUDY    27  25  95 NW15      29.96R WCI  15
MITCHELL       CLOUDY    26  23  88 N24G33    29.92R WCI  11
YANKTON        MIX PCPN  26  24  92 NW29G35   29.82R FOG     WCI  10
$$

ABBREVIATIONS USED IN REMARKS
   TC - TEMPERATURE IN CELSIUS
  WCI - WIND CHILL INDEX
   HX - HEAT INDEX
  VSB - VISIBILITY





USA.gov is the U.S. government's official web portal to all federal, state and local government web resources and services.